Location: Poughquag
(41.6090°N, 73.6820°W)
Time: 04:20:58
(UTC-04:00)

Envisat - Visible Passes

Search period start: 18 July 2018 00:00
Search period end: 28 July 2018 00:00
Orbit: 764 x 766 km, 98.2° (Epoch: 17 July)

Date Brightness Start Highest point End Pass type
(mag) Time Alt. Az. Time Alt. Az. Time Alt. Az.
20 Jul 5.4 21:09:07 10° SW 21:13:03 22° W 21:17:00 10° NW visible
22 Jul 5.8 21:36:46 10° WSW 21:38:54 13° W 21:41:02 10° WNW visible
23 Jul 5.0 20:57:28 10° SSW 21:01:48 28° W 21:06:09 10° NW visible
25 Jul 5.6 21:24:30 10° SW 21:27:36 16° W 21:30:43 10° NW visible
26 Jul 4.6 20:45:56 10° SSW 20:50:33 35° W 20:55:13 10° NNW visible
